CAPE
7 3 8 5 8 3 7 8 4 3 0 0 0 3 0 22 45 47 31 83 206 270 244 474 474 383 5 0 4 0 25 0 0 0 0 0 0 0 0 0 0 0 0 0 0 0 0
9 4 3 8 5 6 6 6 4 3 0 0 0 0 0 17 73 112 122 137 71 176 264 117 79 85 0 0 0 0 0 0 0 0 0 0 0 0 0 0 0 0 0 0 0 0 0
7 6 7 5 6 4 8 6 3 3 0 0 0 0 0 5 47 48 131 117 81 138 182 115 60 0 0 0 0 0 0 0 0 0 0 0 0 0 0 0 0 0 0 0 0 0 0
6 9 9 11 7 11 4 7 8 5 2 0 0 0 0 0 1 17 45 131 61 70 2 22 4 0 0 3 0 0 0 0 0 0 0 0 0 0 0 0 0 0 0 0 0 0 0
6 10 8 11 8 7 8 6 4 4 2 1 0 0 0 0 0 29 8 42 105 85 54 12 0 0 0 13 18 0 0 1 0 0 0 0 0 0 0 0 0 0 0 0 0 0 0
4 3 8 7 8 6 5 5 6 3 2 1 0 0 0 0 0 0 7 16 30 16 8 0 0 0 0 0 5 2 0 0 0 0 0 0 0 0 0 0 0 0 0 0 0 0 0
3 10 2 3 9 10 7 5 6 4 2 1 0 0 0 0 0 0 0 0 0 0 0 0 0 0 0 0 0 0 0 0 0 0 0 0 0 0 0 0 0 0 0 0 0 0 0
3 5 3 7 5 8 10 8 5 6 4 1 0 0 0 0 0 0 0 0 0 0 0 0 0 0 0 0 0 0 0 0 0 0 0 0 0 0 0 0 0 0 0 0 0 0 0
4 2 5 8 6 6 7 10 10 5 5 2 0 0 0 0 0 0 0 0 0 0 0 0 0 0 0 0 0 0 0 0 0 0 0 0 0 0 0 0 0 0 0 0 0 0 0
5 3 5 1 3 1 4 12 15 8 4 2 1 0 0 0 0 0 0 0 0 0 0 0 0 0 0 0 0 0 0 0 0 0 0 0 0 0 0 0 0 0 0 0 0 0 0
4 3 1 0 1 2 5 7 13 9 5 0 0 0 0 0 0 0 0 0 0 0 0 0 0 0 0 0 0 0 0 0 0 0 0 0 0 0 0 0 0 0 0 0 0 0 0
9 6 3 5 3 0 0 4 9 11 5 0 0 0 0 0 0 0 0 0 0 0 0 0 0 0 0 0 0 0 0 0 0 0 0 0 0 0 0 0 0 0 0 0 0 0 0
4 5 11 6 5 0 0 1 5 8 2 0 0 0 0 0 0 0 0 0 0 0 0 0 0 0 0 0 0 0 0 0 0 0 0 0 0 0 0 0 0 0 0 0 0 0 0
1 2 4 6 4 0 0 0 1 8 0 0 0 0 0 0 0 0 0 0 0 0 0 0 0 0 0 0 0 0 0 0 0 0 0 0 0 0 0 0 0 0 0 0 0 0 0
0 0 11 9 0 0 0 0 0 4 0 0 0 0 0 0 0 0 0 0 0 0 0 0 0 0 0 0 0 0 0 0 0 0 0 0 0 0 0 0 0 0 0 0 0 0 0
0 0 2 9 0 0 0 0 0 2 0 0 0 0 0 0 0 0 0 0 0 0 0 0 0 0 0 0 0 0 0 0 0 0 0 0 0 0 0 0 0 0 0 0 0 0 0
2 1 0 0 0 0 0 0 0 0 0 0 0 0 0 0 0 0 0 0 0 0 0 0 0 0 0 0 0 0 0 0 0 0 0 0 0 0 0 0 0 0 0 0 0 0 0
1 1 0 0 0 0 0 0 0 0 0 0 0 0 0 0 0 0 0 0 0 0 0 0 0 0 0 0 0 0 0 0 0 0 0 0 0 0 0 0 0 0 0 0 0 0 0
2 0 0 0 0 0 0 0 0 0 0 0 0 0 0 0 0 0 0 0 0 0 0 0 0 0 0 0 0 0 0 0 0 0 0 0 0 0 0 0 0 0 0 0 0 0 0
0 0 0 0 0 0 0 0 0 0 0 0 0 0 0 0 0 0 0 0 0 0 0 0 0 0 0 0 0 0 0 0 0 0 0 0 0 0 0 0 0 0 0 0 0 0 0
0 0 0 0 0 0 0 0 0 0 0 0 0 0 0 0 0 0 0 0 0 0 0 0 0 0 0 0 0 0 0 0 0 0 0 0 0 0 0 0 0 0 0 0 0 0 0
4 0 0 0 0 0 0 0 0 0 0 0 0 0 0 0 0 0 0 0 0 0 0 0 0 0 0 0 0 0 0 0 0 0 0 0 0 0 0 0 0 0 0 0 0 0 0
7 5 3 1 0 0 0 0 0 0 0 0 0 0 0 0 0 0 0 0 0 0 0 0 0 0 0 0 0 0 0 0 0 0 0 0 0 0 0 0 0 0 0 0 0 0 0
17 16 6 7 7 6 2 0 0 0 0 0 0 0 0 0 0 0 0 0 0 0 0 0 0 0 0 0 0 0 0 0 0 0 0 0 0 0 0 0 0 0 0 0 0 0 0
15 10 7 9 4 4 10 10 3 0 0 0 0 0 0 0 0 0 0 0 0 0 0 0 0 0 0 0 0 0 0 0 0 0 0 0 0 0 0 0 0 0 0 0 0 0 0
17 16 14 8 5 6 9 10 4 1 0 0 0 0 0 0 0 0 0 0 0 0 0 0 0 0 0 0 0 0 0 0 0 0 0 0 0 0 0 0 0 0 0 0 0 0 0
2 7 9 8 8 8 11 5 1 12 0 0 0 0 0 0 0 0 0 0 0 0 0 0 0 0 0 0 0 0 0 0 0 0 0 0 0 0 0 0 0 0 0 0 0 0 0
0 0 2 6 13 17 9 1 2 28 5 0 0 0 0 0 0 0 0 0 0 0 0 0 0 0 0 0 0 0 0 0 0 0 0 0 0 0 0 0 0 0 0 0 0 0 0
0 0 0 0 1 10 12 4 0 0 21 0 1 0 0 0 0 0 0 0 0 0 0 0 0 0 0 0 0 0 0 0 0 0 0 0 0 0 0 0 0 0 0 0 0 0 0
CIN
0 0 0 0 0 0 0 0 0 0 0 0 0 -16 0 -18 -13 -19 -24 -6 -5 -12 -7 -9 -6 -8 -49 0 0 0 -63 -10 0 0 0 0 0 0 0 0 0 0 0 0 0 0 0
0 0 0 0 0 0 0 0 0 0 0 0 0 0 0 -28 -55 -15 -6 -5 -8 -7 -23 -28 -43 -52 0 0 0 0 0 0 0 0 0 0 0 0 0 0 0 0 0 0 0 0 0
0 0 0 0 0 0 0 0 0 0 0 0 0 0 0 -50 -70 -47 -24 -21 -24 -27 -36 -34 -59 -5 0 -3 -15 0 0 0 0 0 0 -44 0 0 0 0 0 0 0 0 0 0 0
0 0 0 0 0 0 0 0 0 0 0 0 0 0 0 0 -17 -100 -92 -80 -74 -69 -10 -80 -58 0 0 -118 0 0 0 0 0 0 0 0 0 0 0 0 0 0 0 0 0 0 0
0 0 0 0 0 0 0 0 0 0 0 0 0 0 0 0 -16 -141 -167 -138 -135 -117 -88 -116 0 0 0 -115 -73 0 0 -51 0 0 0 0 0 0 0 0 0 0 0 0 0 0 0
0 0 0 0 0 0 0 0 0 0 0 0 0 0 0 0 0 0 -138 -152 -180 -125 -38 0 0 0 0 0 -83 -43 0 0 0 0 0 0 0 0 0 0 0 0 0 0 0 0 0
0 0 0 0 0 0 0 0 0 0 0 0 0 0 0 0 0 0 0 0 0 0 0 0 0 0 0 0 0 0 0 0 0 0 0 0 0 0 0 0 0 0 0 0 0 0 0
0 0 0 0 0 0 0 0 0 0 0 0 0 0 0 0 0 0 0 0 0 0 0 0 0 0 0 0 0 0 0 0 0 0 0 0 0 0 0 0 0 0 0 0 0 0 0
0 0 0 0 0 0 0 0 0 0 0 0 0 0 0 0 0 0 0 0 0 0 0 0 0 0 0 0 0 0 0 0 0 0 0 0 0 0 0 0 0 0 0 0 0 0 0
0 0 0 0 0 0 0 0 0 0 0 0 0 0 0 0 0 0 0 0 0 0 0 0 0 0 0 0 0 0 0 0 0 0 0 0 0 0 0 0 0 0 0 0 0 0 0
0 0 0 0 0 0 0 0 0 0 0 0 0 0 0 0 0 0 0 0 0 0 0 0 0 0 0 0 0 0 0 0 0 0 0 0 0 0 0 0 0 0 0 0 0 0 0
0 0 0 0 0 0 0 0 0 0 0 0 0 0 0 0 0 0 0 0 0 0 0 0 0 0 0 0 0 0 0 0 0 0 0 0 0 0 0 0 0 0 0 0 0 0 0
0 0 0 0 0 0 0 0 0 0 0 0 0 0 0 0 0 0 0 0 0 0 0 0 0 0 0 0 0 0 0 0 0 0 0 0 0 0 0 0 0 0 0 0 0 0 0
0 0 0 0 0 0 0 0 0 0 0 0 0 0 0 0 0 0 0 0 0 0 0 0 0 0 0 0 0 0 0 0 0 0 0 0 0 0 0 0 0 0 0 0 0 0 0
0 0 0 0 0 0 0 0 0 0 0 0 0 0 0 0 0 0 0 0 0 0 0 0 0 0 0 0 0 0 0 0 0 0 0 0 0 0 0 0 0 0 0 0 0 0 0
0 0 0 0 0 0 0 0 0 0 0 0 0 0 0 0 0 0 0 0 0 0 0 0 0 0 0 0 0 0 0 0 0 0 0 0 0 0 0 0 0 0 0 0 0 0 0
0 0 0 0 0 0 0 0 0 0 0 0 0 0 0 0 0 0 0 0 0 0 0 0 0 0 0 0 0 0 0 0 0 0 0 0 0 0 0 0 0 0 0 0 0 0 0
0 0 0 0 0 0 0 0 0 0 0 0 0 0 0 0 0 0 0 0 0 0 0 0 0 0 0 0 0 0 0 0 0 0 0 0 0 0 0 0 0 0 0 0 0 0 0
-2 0 0 0 0 0 0 0 0 0 0 0 0 0 0 0 0 0 0 0 0 0 0 0 0 0 0 0 0 0 0 0 0 0 0 0 0 0 0 0 0 0 0 0 0 0 0
0 0 0 0 0 0 0 0 0 0 0 0 0 0 0 0 0 0 0 0 0 0 0 0 0 0 0 0 0 0 0 0 0 0 0 0 0 0 0 0 0 0 0 0 0 0 0
0 0 0 0 0 0 0 0 0 0 0 0 0 0 0 0 0 0 0 0 0 0 0 0 0 0 0 0 0 0 0 0 0 0 0 0 0 0 0 0 0 0 0 0 0 0 0
-11 0 0 0 0 0 0 0 0 0 0 0 0 0 0 0 0 0 0 0 0 0 0 0 0 0 0 0 0 0 0 0 0 0 0 0 0 0 0 0 0 0 0 0 0 0 0
-14 -16 -15 -6 0 0 0 0 0 0 0 0 0 0 0 0 0 0 0 0 0 0 0 0 0 0 0 0 0 0 0 0 0 0 0 0 0 0 0 0 0 0 0 0 0 0 0
-16 -13 -21 -19 -20 -25 -15 0 0 0 0 0 0 0 0 0 0 0 0 0 0 0 0 0 0 0 0 0 0 0 0 0 0 0 0 0 0 0 0 0 0 0 0 0 0 0 0
-23 -20 -23 -24 -29 -34 -30 -30 -36 0 0 0 0 0 0 0 0 0 0 0 0 0 0 0 0 0 0 0 0 0 0 0 0 0 0 0 0 0 0 0 0 0 0 0 0 0 0
-23 -25 -24 -25 -35 -44 -33 -29 -30 -23 0 0 0 0 0 0 0 0 0 0 0 0 0 0 0 0 0 0 0 0 0 0 0 0 0 0 0 0 0 0 0 0 0 0 0 0 0
-17 -23 -27 -33 -36 -43 -34 -35 -20 -24 0 0 0 0 0 0 0 0 0 0 0 0 0 0 0 0 0 0 0 0 0 0 0 0 0 0 0 0 0 0 0 0 0 0 0 0 0
0 0 -33 -41 -41 -43 -43 -23 -14 -18 -43 0 0 0 0 0 0 0 0 0 0 0 0 0 0 0 0 0 0 0 0 0 0 0 0 0 0 0 0 0 0 0 0 0 0 0 0
0 0 0 0 -41 -43 -46 -54 0 0 -7 0 -9 0 0 0 0 0 0 0 0 0 0 0 0 0 0 0 0 0 0 0 0 0 0 0 0 0 0 0 0 0 0 0 0 0 0
Wind_Speed
16 16 16 16 16 15 15 16 17 17 18 19 17 17 18 17 17 16 18 17 18 17 17 18 19 11 5 8 5 6 7 9 10 6 5 2 5 4 8 6 5 4 2 5 5 10 8
17 16 16 16 16 16 15 15 16 16 17 17 17 16 15 15 15 16 14 13 15 15 13 3 1 3 6 15 5 8 4 7 6 5 7 1 6 6 6 5 6 5 6 4 8 7 6
17 17 17 16 16 16 16 15 15 16 16 16 16 15 13 11 12 16 16 15 10 9 10 10 13 10 19 9 4 3 3 2 3 5 4 5 6 3 4 9 6 8 8 7 8 5 3
18 18 17 17 17 16 16 15 15 14 15 16 15 15 13 13 12 12 13 14 12 9 6 5 3 6 8 4 4 4 7 9 13 11 7 5 4 7 7 7 5 4 4 5 4 4 2
18 18 18 18 18 17 16 15 14 14 14 15 15 14 15 15 13 12 14 15 15 12 6 6 3 7 6 2 2 7 9 6 2 3 2 3 5 5 6 7 6 1 2 4 1 1 1
18 19 19 19 19 18 17 16 16 14 13 14 14 15 13 13 14 12 12 11 13 12 1 1 2 7 6 5 3 5 4 5 2 2 3 8 7 5 4 5 6 6 5 3 4 2 0
18 19 20 20 20 20 19 18 16 15 14 13 13 13 15 14 12 12 8 5 8 9 11 8 1 5 1 7 1 6 4 5 0 4 5 6 10 2 2 2 4 5 6 7 2 2 1
19 19 20 20 21 21 21 20 18 16 15 14 13 12 12 12 13 12 3 6 2 3 5 6 5 4 3 2 8 13 7 1 4 5 4 8 4 3 8 4 7 6 10 3 1 1 2
17 18 20 21 21 22 22 21 20 18 16 15 15 13 12 13 9 5 5 3 1 2 5 7 3 4 5 7 4 8 6 3 9 11 8 8 3 6 0 10 14 7 7 3 3 1 2
15 17 19 21 22 22 22 21 20 19 16 14 13 13 11 14 3 1 3 1 1 1 7 12 9 5 5 2 8 2 4 0 6 7 5 7 8 7 8 8 5 6 4 4 4 4 3
15 16 18 19 20 21 22 21 21 20 16 13 11 11 11 6 2 3 2 4 2 4 8 10 8 3 4 6 3 9 4 10 6 4 6 1 6 9 10 5 4 4 2 4 2 4 6
16 16 15 18 19 20 22 23 21 19 17 12 8 10 8 4 4 2 2 3 3 9 2 6 5 4 5 8 3 0 5 7 2 11 10 5 3 5 3 3 5 3 3 5 5 4 4
14 16 16 17 20 20 21 23 23 21 18 11 7 8 5 2 1 3 3 4 8 9 4 3 2 4 5 4 6 6 5 6 4 6 6 6 5 3 2 2 3 2 6 4 6 5 6
15 16 16 17 19 21 22 22 23 21 19 10 7 6 4 2 2 3 3 8 11 6 1 2 2 1 3 3 2 3 3 6 8 5 4 5 6 5 8 3 2 3 5 6 6 3 5
14 16 17 17 18 21 22 23 23 20 17 10 7 1 2 2 1 3 6 9 7 4 3 4 3 2 1 0 2 4 3 3 2 5 5 5 2 1 3 3 3 3 1 3 6 2 4
14 15 16 17 19 20 21 22 23 22 18 10 1 2 2 1 2 4 7 5 3 3 5 3 2 0 2 1 1 3 2 3 3 1 1 2 5 1 1 3 1 1 1 4 4 2 3
14 15 16 17 18 19 21 23 23 24 22 3 2 4 3 4 3 6 6 3 3 1 3 2 4 4 4 2 3 2 1 2 3 3 4 2 5 4 3 5 6 1 1 2 3 4 4
12 14 16 16 17 19 20 22 24 24 23 4 2 5 2 2 7 3 3 2 2 2 2 1 1 4 3 5 6 4 3 3 4 2 2 1 3 3 4 2 2 4 6 6 6 4 4
11 13 15 14 15 17 19 21 23 22 15 2 3 2 2 4 5 3 1 3 4 0 2 2 2 3 1 2 3 3 4 5 6 4 2 4 1 3 8 6 4 3 4 3 4 4 6
9 11 12 13 14 15 17 19 22 23 17 4 4 4 6 6 1 5 2 1 1 2 2 2 2 1 1 2 2 3 2 0 2 2 4 3 1 6 7 4 3 3 4 5 6 4 4
9 10 10 11 12 14 15 18 21 25 24 4 4 1 3 3 5 3 3 2 1 0 0 1 2 1 1 1 2 3 4 3 3 4 2 5 2 2 4 6 4 7 8 9 12 10 9
9 10 10 10 11 11 13 16 19 24 20 6 3 3 3 0 1 2 2 0 2 1 1 2 1 3 1 0 1 1 2 3 4 2 4 1 3 1 4 4 4 7 10 12 14 12 16
9 10 10 10 10 11 11 12 16 21 13 4 2 2 4 3 3 3 2 1 1 2 1 2 2 3 3 0 2 2 3 2 2 6 5 4 2 3 5 4 7 9 9 13 6 6 13
11 10 9 10 10 11 11 10 11 13 10 2 0 2 3 2 2 2 0 1 1 1 1 1 1 1 0 5 4 2 2 3 1 1 2 3 4 3 4 4 2 6 1 3 10 8 11
11 10 9 10 10 9 9 8 9 10 11 3 1 3 2 1 1 3 3 1 2 1 1 2 2 1 2 2 3 3 3 2 2 4 4 3 4 1 2 3 9 4 1 0 2 4 3
13 12 11 10 9 9 7 4 4 5 7 3 1 0 1 4 3 2 3 3 2 1 4 1 1 2 1 1 2 1 3 4 2 2 5 2 4 4 1 2 5 2 1 1 1 2 6
15 14 13 11 10 9 6 5 5 4 2 2 2 3 4 1 4 2 4 5 4 2 2 0 1 2 3 1 1 4 4 2 2 4 4 3 1 5 3 4 9 5 1 3 2 3 3
17 16 15 12 11 9 7 6 6 7 6 2 2 2 2 3 4 2 3 4 2 3 4 4 3 1 2 1 1 3 2 3 1 5 7 7 7 5 4 4 10 4 1 1 3 2 1
19 17 16 13 10 10 8 7 6 5 7 5 2 1 1 1 4 2 4 3 3 3 5 3 4 4 5 3 2 0 2 2 2 4 2 3 8 7 10 8 4 5 4 3 4 5 5
Wind_Direction
25 20 18 19 15 13 10 6 359 359 360 3 15 20 28 13 11 19 34 35 50 59 55 87 110 134 58 62 49 303 335 27 5 324 273 338 173 176 142 144 81 83 19 42 26 59 62
23 23 19 16 15 12 10 9 1 358 0 4 11 23 33 22 357 352 5 36 41 49 37 75 173 223 85 62 273 234 329 44 250 300 302 284 219 202 100 112 89 117 93 52 37 47 45
24 21 18 15 13 11 8 7 5 357 357 3 6 15 12 14 357 349 345 348 351 12 17 109 112 109 73 130 218 97 163 262 244 252 303 278 228 232 114 84 132 125 78 42 17 28 58
24 20 16 13 11 9 8 6 3 359 356 355 2 3 3 357 353 347 332 328 318 347 14 342 266 22 84 189 159 334 187 283 262 252 233 264 294 114 107 124 67 68 57 85 314 1 287
21 17 15 12 10 9 7 3 1 359 356 353 351 355 356 347 345 333 324 320 312 308 280 288 52 82 35 116 211 238 181 226 201 276 250 266 75 85 49 92 62 70 141 101 146 324 198
21 18 15 12 9 7 7 4 357 356 354 348 346 343 347 344 335 319 314 302 296 328 147 265 11 58 3 335 328 334 295 188 217 311 16 40 53 76 39 73 160 176 130 107 142 250 188
20 17 14 11 7 4 2 3 359 352 349 345 341 340 334 339 337 330 338 360 14 1 40 104 78 110 297 304 27 5 336 318 31 24 89 34 68 59 336 267 130 151 99 112 133 295 119
19 17 13 11 7 3 359 359 358 354 347 341 337 335 333 331 328 327 54 75 140 208 38 43 64 36 5 355 35 351 4 21 50 70 76 41 62 291 301 350 91 107 110 78 73 338 72
11 11 10 6 1 359 357 356 355 354 349 341 335 335 334 332 321 30 93 100 308 17 67 0 53 42 321 34 37 337 24 11 88 70 65 95 266 319 109 42 76 46 96 126 145 86 12
8 7 3 358 356 355 353 352 352 353 347 340 333 332 335 330 38 261 52 90 257 265 71 330 352 2 349 93 16 316 5 80 52 106 77 59 339 57 43 65 34 73 344 69 69 89 176
4 6 357 352 352 350 350 350 352 354 347 338 331 329 330 28 251 69 275 331 330 60 65 296 315 285 315 100 178 343 348 32 63 69 98 171 11 25 39 352 10 151 51 79 68 95 71
356 358 353 350 349 350 349 347 351 354 353 343 330 323 335 18 49 340 318 0 48 46 9 336 316 335 31 15 38 95 20 45 95 60 59 85 59 57 1 346 52 132 73 35 43 71 36
352 354 352 348 347 348 349 348 349 355 356 353 330 316 14 29 174 319 358 36 39 79 270 343 305 7 56 45 12 32 33 38 71 77 12 1 27 351 10 342 13 48 55 14 8 9 216
346 349 349 350 348 346 347 349 348 354 352 348 331 340 15 74 44 43 38 51 67 251 238 285 303 46 69 21 15 38 52 21 13 63 106 111 346 2 332 54 355 37 132 151 181 187 247
337 342 343 347 350 347 346 347 348 353 352 341 341 319 89 315 12 80 72 53 178 245 335 329 331 315 35 90 127 83 75 124 45 23 120 121 2 275 42 355 55 335 33 167 101 52 47
336 335 339 343 347 347 346 347 347 350 350 339 39 25 301 230 95 68 73 118 106 359 347 350 311 4 99 7 83 90 135 324 138 105 133 157 86 326 306 11 301 158 202 55 1 107 289
334 332 335 340 341 343 343 345 347 350 348 4 46 53 254 131 77 53 95 112 120 33 32 35 9 14 35 14 30 77 73 344 20 332 338 102 113 244 118 201 191 112 108 65 119 129 154
328 331 332 336 337 340 342 343 347 352 348 71 72 40 266 103 52 42 65 66 197 165 271 307 2 44 34 23 22 49 102 41 7 23 53 39 116 169 201 202 174 181 182 149 124 225 200
318 325 331 331 332 337 341 343 345 351 14 357 75 255 335 88 77 22 213 53 40 293 84 39 84 28 7 58 92 54 56 329 15 48 62 338 340 49 345 349 348 243 222 192 110 82 211
301 315 324 327 330 335 339 344 344 344 353 108 71 29 333 37 103 114 96 48 94 336 335 332 171 223 276 162 136 151 126 196 59 71 2 41 261 173 189 209 134 221 224 198 155 138 211
295 306 314 321 328 336 343 346 348 344 346 99 44 261 193 337 349 70 95 350 88 97 268 326 305 267 97 137 156 154 142 172 217 188 168 122 217 7 277 262 247 224 214 207 205 202 191
278 291 304 315 326 337 346 347 350 353 349 75 88 70 9 245 282 16 48 96 47 19 162 178 153 344 244 73 29 174 20 189 198 207 192 177 252 103 284 307 236 250 242 230 233 228 244
259 276 291 301 313 325 341 353 359 2 9 76 332 5 104 284 331 63 266 202 99 86 7 54 33 5 295 80 310 236 183 243 170 161 195 156 137 67 267 341 323 291 238 219 206 205 214
246 255 271 286 297 312 327 346 6 14 35 113 230 103 80 265 119 170 229 6 318 55 215 173 95 154 285 328 307 269 317 286 274 294 167 166 149 148 260 352 311 241 231 233 206 238 214
246 255 255 266 274 286 299 328 352 14 18 73 8 92 99 255 195 140 137 194 311 256 281 257 11 181 309 344 15 349 353 5 32 39 19 12 127 274 188 221 292 339 29 338 217 2 262
242 245 252 264 275 276 280 300 314 356 19 80 77 125 75 125 241 134 154 166 183 228 338 280 351 336 30 107 100 218 245 230 241 350 6 61 74 135 158 205 255 280 263 325 273 292 346
234 242 244 247 260 269 277 290 287 239 87 73 286 127 107 352 274 137 174 177 153 137 175 296 259 355 18 62 169 199 241 172 222 195 157 121 152 209 238 270 283 264 224 323 152 220 335
229 233 240 243 252 253 246 253 284 234 186 136 282 297 119 155 265 243 178 157 122 140 162 209 63 1 54 340 223 268 211 238 193 175 180 169 154 195 173 225 264 195 50 219 204 245 179
229 226 231 232 234 242 231 237 230 236 206 168 197 277 333 179 242 261 264 222 212 196 148 201 181 166 193 136 219 327 294 322 206 259 130 235 193 181 190 216 210 192 173 164 188 215 206